Location: Nied?wied?
(53.3665°N, 14.8184°E)
Time: 23:26:35
(UTC+00:00)

Cosmos 962 Rocket - Pass Details

Date: 03 March 2021
Orbit: 951 x 999 km, 82.9° (Epoch: 12 April)

Event Time Altitude Azimuth Distance (km) Brightness Sun altitude
Rises 18:09:42 0° 178° (S) 3,646 7.4 -13.7°
Reaches altitude 10° 18:12:12 10° 176° (S) 2,710 6.7 -14.1°
Maximum altitude 18:18:20 67° 95° (E) 1,059 4.4 -15.0°
Drops below altitude 10° 18:24:37 10° 14° (NNE) 2,761 6.8 -15.9°
Sets 18:27:10 0° 12° (NNE) 3,720 7.5 -16.3°
